RH
90 97 97 90 94 89 83 82 71 64 62 60 60 51 69 72 61 63 66 68 61 59 61 65 62 70 73 81 81 88 98 94 92 96 97 94 92 90 82 68 62 59 54
80 91 96 97 90 87 83 81 70 67 59 58 59 56 73 71 63 62 64 63 61 63 65 66 70 72 78 81 84 96 89 91 94 95 94 91 87 85 75 58 54 52 52
75 82 95 94 91 93 93 87 76 74 67 68 58 64 83 78 67 61 64 68 65 67 67 68 72 78 80 81 84 89 89 93 92 99 89 86 71 66 67 59 57 56 54
70 76 90 97 97 97 97 97 95 85 78 73 70 77 79 84 75 69 69 75 79 76 75 76 77 78 78 82 87 86 88 88 85 79 76 76 77 67 65 56 53 51 56
60 68 82 96 97 97 97 97 97 95 79 72 78 93 80 73 85 83 88 88 86 83 82 79 78 78 77 79 80 81 81 77 75 72 63 62 61 60 58 57 56 56 54
55 61 74 88 97 97 97 98 96 97 98 93 90 76 80 90 97 98 92 96 94 92 89 85 82 81 82 83 82 76 73 69 67 65 64 60 59 60 60 57 58 56 52
52 58 63 82 91 95 97 97 98 97 96 91 97 83 92 88 98 99 99 98 94 90 86 90 87 88 88 87 82 76 73 74 70 68 62 63 63 62 62 60 58 56 53
49 57 61 72 83 87 90 96 97 96 96 94 89 96 97 97 96 98 98 97 95 92 90 82 81 82 79 77 75 75 73 74 73 73 73 70 65 64 63 62 62 64 66
51 54 58 66 72 80 82 88 96 96 92 92 97 93 93 97 98 98 98 98 99 96 93 88 85 82 81 81 82 81 78 75 78 78 79 79 76 74 71 71 70 71 69
52 53 54 60 64 74 77 78 83 94 93 89 88 94 94 96 97 98 98 99 99 97 91 89 87 85 87 85 84 85 81 85 85 85 82 82 81 79 79 79 77 74 74
53 49 50 56 59 66 72 72 76 79 91 88 85 83 88 88 88 90 90 91 94 93 91 92 95 93 92 91 87 83 82 87 85 84 84 82 81 81 82 81 80 76 75
56 51 51 47 53 60 63 68 69 71 77 83 83 84 84 85 82 81 82 74 75 81 87 87 85 82 78 72 74 74 76 80 80 78 80 81 83 80 79 78 79 77 76
62 56 53 50 46 57 57 57 60 63 66 74 78 80 82 81 82 79 77 75 74 69 69 67 68 69 72 74 70 70 74 80 77 78 79 78 78 79 80 78 77 75 75
70 61 56 54 52 55 56 53 56 55 60 64 72 75 75 75 76 77 76 74 70 66 64 59 56 66 70 75 74 72 69 73 76 76 76 78 79 80 81 78 76 75 76
76 68 60 56 54 53 57 53 53 54 55 58 63 71 72 70 71 72 76 75 70 66 61 64 64 60 65 68 69 69 69 67 69 76 79 79 80 81 82 80 78 80 80
82 76 67 60 59 57 55 53 52 53 55 55 55 59 62 71 72 66 68 71 70 68 66 66 63 59 58 64 63 63 65 68 72 76 77 78 79 80 80 76 78 84 90
86 78 72 65 59 56 56 54 51 50 52 53 55 57 60 59 61 60 58 62 66 63 61 59 56 60 58 63 61 59 60 60 62 55 53 58 62 71 74 77 87 91 94
91 81 73 66 58 55 53 54 52 55 53 58 56 54 54 54 51 52 55 59 55 60 60 59 59 56 57 59 56 51 54 57 59 59 59 60 64 68 72 77 90 96 98
91 85 80 70 63 58 57 58 60 60 57 52 52 53 50 49 49 48 49 53 57 54 58 59 58 54 53 62 61 56 57 55 55 64 68 63 66 70 75 78 91 97 97
90 85 79 73 71 68 64 62 60 58 58 56 52 53 52 48 49 49 52 52 60 64 63 62 58 59 58 66 60 59 64 64 64 67 68 63 65 67 70 73 79 84 96
93 91 89 85 83 81 78 76 71 67 64 61 59 57 55 54 51 55 57 58 57 62 67 67 60 57 62 64 68 71 73 73 70 65 62 63 58 56 56 54 55 64 83
96 94 93 90 89 86 83 80 74 72 69 65 64 62 60 60 58 56 60 63 64 62 62 65 70 71 68 68 75 70 74 78 77 70 64 58 54 54 56 55 56 63 66
98 99 98 98 97 92 87 85 84 82 77 74 73 70 68 68 67 64 63 63 64 62 60 62 65 66 74 74 73 78 76 80 77 77 74 69 66 68 68 66 68 69 68
98 99 99 99 99 98 94 92 91 90 89 87 85 81 75 73 70 69 65 62 63 64 62 63 67 68 70 73 80 79 77 82 81 81 79 80 82 78 76 76 78 77 77
98 98 98 98 98 98 98 97 97 97 96 97 97 93 87 83 78 75 73 72 70 69 67 64 65 67 68 73 72 72 77 79 82 85 87 85 84 84 85 85 86 85 82
98 98 99 99 98 98 97 97 97 98 97 97 97 97 96 93 87 82 77 75 73 72 70 67 68 72 73 75 73 71 72 74 79 84 83 79 79 80 79 79 79 78 76